Hourly Weather Accettura

Today, 17 April, Saturday

Time Temperature Precipitation Wind Pressure Humidity
00:00 +2°C° 0 mm 2 mps 688 mmHg 95%
01:00 +2°C° 0 mm 2 mps 687 mmHg 95%
02:00 +1°C° 0 mm 2 mps 687 mmHg 94%
03:00 +1°C° 0 mm 2 mps 687 mmHg 94%
04:00 +1°C° 0 mm 2 mps 686 mmHg 94%
05:00 +2°C° 0 mm 2 mps 686 mmHg 91%
06:00 +3°C° 0 mm 2 mps 686 mmHg 88%
07:00 +3°C° 0 mm 2 mps 686 mmHg 85%
08:00 +5°C° 0 mm 2 mps 686 mmHg 79%
09:00 +6°C° 0 mm 2 mps 687 mmHg 73%
10:00 +8°C° 0 mm 2 mps 687 mmHg 67%
11:00 +8°C° 0.1 mm 3 mps 686 mmHg 66%
12:00 +8°C° 0.1 mm 3 mps 686 mmHg 66%
13:00 +9°C° 0.1 mm 3 mps 686 mmHg 66%
14:00 +8°C° 0.2 mm 3 mps 686 mmHg 72%
15:00 +7°C° 0.2 mm 3 mps 686 mmHg 78%
16:00 +5°C° 0.2 mm 3 mps 686 mmHg 84%
17:00 +4°C° 0.1 mm 3 mps 686 mmHg 85%
18:00 +5°C° 0.1 mm 2 mps 686 mmHg 86%
19:00 +4°C° 0.1 mm 2 mps 686 mmHg 88%
20:00 +4°C° 0.1 mm 2 mps 687 mmHg 88%
21:00 +5°C° 0.1 mm 1 mps 687 mmHg 88%
22:00 +5°C° 0.1 mm 1 mps 687 mmHg 88%
23:00 +5°C° 0 mm 1 mps 687 mmHg 88%

Tomorrow, 18 April, Sunday

Time Temperature Precipitation Wind Pressure Humidity
00:00 +5°C° 0 mm 1 mps 687 mmHg 87%
01:00 +5°C° 0 mm 1 mps 687 mmHg 87%
02:00 +5°C° 0.2 mm 1 mps 686 mmHg 88%
03:00 +4°C° 0.2 mm 0 mps 686 mmHg 89%
04:00 +4°C° 0.2 mm 0 mps 686 mmHg 90%
05:00 +4°C° 0.1 mm 0 mps 687 mmHg 91%
06:00 +4°C° 0.1 mm 0 mps 687 mmHg 91%
07:00 +5°C° 0.1 mm 1 mps 688 mmHg 91%
08:00 +6°C° 0.1 mm 1 mps 688 mmHg 89%
09:00 +6°C° 0.1 mm 1 mps 688 mmHg 86%
10:00 +7°C° 0.1 mm 1 mps 689 mmHg 83%
11:00 +7°C° 0.2 mm 2 mps 688 mmHg 78%
12:00 +8°C° 0.2 mm 2 mps 688 mmHg 73%
13:00 +10°C° 0.2 mm 3 mps 688 mmHg 68%
14:00 +9°C° 0.6 mm 3 mps 688 mmHg 69%
15:00 +9°C° 0.6 mm 3 mps 688 mmHg 69%
16:00 +9°C° 0.6 mm 3 mps 688 mmHg 70%
17:00 +8°C° 0.3 mm 3 mps 688 mmHg 75%
18:00 +6°C° 0.3 mm 2 mps 688 mmHg 81%
19:00 +4°C° 0.3 mm 2 mps 688 mmHg 86%
20:00 +4°C° 0 mm 2 mps 688 mmHg 87%
21:00 +3°C° 0 mm 2 mps 688 mmHg 88%
22:00 +2°C° 0 mm 2 mps 688 mmHg 89%
23:00 +3°C° 0 mm 2 mps 687 mmHg 89%

Day after tomorrow, 19 April, Monday

Time Temperature Precipitation Wind Pressure Humidity
00:00 +3°C° 0 mm 2 mps 687 mmHg 89%
01:00 +3°C° 0 mm 2 mps 687 mmHg 89%
02:00 +4°C° 0.1 mm 1 mps 687 mmHg 89%
03:00 +4°C° 0.1 mm 1 mps 687 mmHg 89%
04:00 +4°C° 0.1 mm 1 mps 687 mmHg 89%
05:00 +5°C° 0.1 mm 1 mps 687 mmHg 87%
06:00 +5°C° 0.1 mm 1 mps 687 mmHg 85%
07:00 +5°C° 0.1 mm 2 mps 687 mmHg 84%
08:00 +6°C° 0.1 mm 2 mps 687 mmHg 78%
09:00 +7°C° 0.1 mm 2 mps 687 mmHg 72%
10:00 +8°C° 0.1 mm 2 mps 687 mmHg 66%
11:00 +8°C° 0.3 mm 3 mps 687 mmHg 66%
12:00 +8°C° 0.3 mm 3 mps 687 mmHg 65%
13:00 +9°C° 0.3 mm 3 mps 687 mmHg 65%
14:00 +8°C° 0.5 mm 3 mps 687 mmHg 69%
15:00 +8°C° 0.5 mm 3 mps 687 mmHg 74%
16:00 +7°C° 0.5 mm 3 mps 687 mmHg 78%
17:00 +6°C° 0.3 mm 2 mps 688 mmHg 81%
18:00 +5°C° 0.3 mm 2 mps 688 mmHg 84%
19:00 +5°C° 0.3 mm 2 mps 688 mmHg 87%
20:00 +4°C° 0 mm 2 mps 688 mmHg 88%
21:00 +3°C° 0 mm 2 mps 688 mmHg 88%
22:00 +2°C° 0 mm 2 mps 689 mmHg 88%
23:00 +2°C° 0 mm 2 mps 689 mmHg 89%

20 April, Tuesday

Time Temperature Precipitation Wind Pressure Humidity
00:00 +2°C° 0 mm 2 mps 689 mmHg 89%
01:00 +1°C° 0 mm 2 mps 688 mmHg 89%
02:00 +1°C° 0 mm 2 mps 688 mmHg 89%
03:00 +1°C° 0 mm 2 mps 688 mmHg 89%
04:00 +1°C° 0 mm 2 mps 688 mmHg 89%
05:00 +3°C° 0 mm 2 mps 689 mmHg 86%
06:00 +4°C° 0 mm 2 mps 689 mmHg 83%
07:00 +6°C° 0 mm 1 mps 689 mmHg 79%
08:00 +7°C° 0 mm 2 mps 690 mmHg 72%
09:00 +9°C° 0 mm 2 mps 690 mmHg 65%
10:00 +12°C° 0 mm 2 mps 690 mmHg 58%
11:00 +12°C° 0.2 mm 2 mps 690 mmHg 58%
12:00 +11°C° 0.2 mm 3 mps 690 mmHg 57%
13:00 +12°C° 0.2 mm 3 mps 690 mmHg 56%
14:00 +11°C° 0.3 mm 3 mps 690 mmHg 58%
15:00 +11°C° 0.3 mm 3 mps 689 mmHg 59%
16:00 +11°C° 0.3 mm 3 mps 689 mmHg 61%
17:00 +9°C° 0.1 mm 2 mps 689 mmHg 68%
18:00 +8°C° 0.1 mm 2 mps 689 mmHg 76%
19:00 +7°C° 0.1 mm 1 mps 689 mmHg 83%
20:00 +7°C° 0 mm 1 mps 689 mmHg 83%
21:00 +6°C° 0 mm 1 mps 689 mmHg 84%
22:00 +6°C° 0 mm 1 mps 689 mmHg 84%
23:00 +6°C° 0 mm 1 mps 689 mmHg 81%

21 April, Wednesday

Time Temperature Precipitation Wind Pressure Humidity
00:00 +6°C° 0 mm 1 mps 689 mmHg 78%
01:00 +6°C° 0 mm 1 mps 689 mmHg 75%
02:00 +6°C° 0 mm 1 mps 689 mmHg 73%
03:00 +6°C° 0 mm 1 mps 688 mmHg 70%
04:00 +6°C° 0 mm 1 mps 688 mmHg 67%
05:00 +7°C° 0 mm 1 mps 688 mmHg 67%
06:00 +8°C° 0 mm 1 mps 688 mmHg 66%
07:00 +9°C° 0 mm 1 mps 689 mmHg 66%
08:00 +10°C° 0.1 mm 1 mps 689 mmHg 64%
09:00 +10°C° 0.1 mm 2 mps 689 mmHg 63%
10:00 +12°C° 0.1 mm 2 mps 689 mmHg 61%
11:00 +10°C° 0.7 mm 2 mps 689 mmHg 68%
12:00 +11°C° 0.7 mm 1 mps 689 mmHg 75%
13:00 +10°C° 0.7 mm 1 mps 689 mmHg 81%
14:00 +10°C° 0.1 mm 2 mps 689 mmHg 77%
15:00 +12°C° 0.1 mm 2 mps 689 mmHg 74%
16:00 +12°C° 0.1 mm 3 mps 688 mmHg 70%
17:00 +10°C° 0.1 mm 3 mps 688 mmHg 76%
18:00 +9°C° 0.1 mm 2 mps 688 mmHg 83%
19:00 +7°C° 0.1 mm 2 mps 688 mmHg 90%
20:00 +7°C° 0 mm 2 mps 688 mmHg 90%
21:00 +7°C° 0 mm 2 mps 688 mmHg 89%
22:00 +7°C° 0 mm 2 mps 689 mmHg 89%
23:00 +7°C° 0 mm 2 mps 688 mmHg 88%

22 April, Thursday

Time Temperature Precipitation Wind Pressure Humidity
00:00 +7°C° 0 mm 2 mps 688 mmHg 88%
01:00 +7°C° 0 mm 2 mps 688 mmHg 88%
02:00 +7°C° 0.1 mm 2 mps 688 mmHg 88%
03:00 +8°C° 0.1 mm 1 mps 688 mmHg 89%
04:00 +8°C° 0.1 mm 1 mps 688 mmHg 90%
05:00 +8°C° 0.1 mm 1 mps 688 mmHg 89%
06:00 +9°C° 0.1 mm 1 mps 688 mmHg 88%
07:00 +10°C° 0.1 mm 1 mps 688 mmHg 87%
08:00 +10°C° 0.1 mm 2 mps 688 mmHg 81%
09:00 +12°C° 0.1 mm 2 mps 689 mmHg 76%
10:00 +12°C° 0.1 mm 3 mps 689 mmHg 71%
11:00 +12°C° 0.3 mm 3 mps 689 mmHg 72%
12:00 +12°C° 0.3 mm 2 mps 689 mmHg 73%
13:00 +12°C° 0.3 mm 2 mps 689 mmHg 75%
14:00 +12°C° 0.2 mm 2 mps 689 mmHg 76%
15:00 +11°C° 0.2 mm 3 mps 689 mmHg 77%
16:00 +11°C° 0.2 mm 3 mps 688 mmHg 78%
17:00 +10°C° 0 mm 2 mps 688 mmHg 82%
18:00 +9°C° 0 mm 2 mps 688 mmHg 87%
19:00 +8°C° 0 mm 1 mps 688 mmHg 91%
20:00 +8°C° 0 mm 1 mps 688 mmHg 91%
21:00 +7°C° 0 mm 1 mps 688 mmHg 91%
22:00 +7°C° 0 mm 1 mps 688 mmHg 91%
23:00 +7°C° 0 mm 1 mps 688 mmHg 91%
Show more